AirNav   $300 off a Bose A20 aviation headset
 
 291 users online  

00M Thigpen Field Airport
Bay Springs, Mississippi, USA

GOING TO BAY SPRINGS?


FAA INFORMATION EFFECTIVE 28 FEBRUARY 2019

Location

FAA Identifier: 00M
Lat/Long: 31-57-13.5000N / 089-14-07.2000W
31-57.225000N / 089-14.120000W
31.9537500 / -89.2353333
(estimated)
Elevation: 351 ft. / 107 m (estimated)
Variation: 02E (1985)
From city: 3 miles SE of BAY SPRINGS, MS
Time zone: UTC -6 (UTC -5 during Daylight Saving Time)
Zip code: 39422

Airport Operations

Airport use: Open to the public
Activation date: 07/1965
Control tower: no
ARTCC: MEMPHIS CENTER
FSS: GREENWOOD FLIGHT SERVICE STATION
NOTAMs facility: GWO (NOTAM-D service available)
Attendance: UNATTENDED
Wind indicator: lighted
Segmented circle: yes
Lights: SS-SR
Beacon: white-green (lighted land airport)
GREEN LENS OTS INDEF. Operates sunset to sunrise.

Airport Communications

CTAF: 122.9
WX AWOS-3 at LUL (17 nm S): 119.275 (601-425-9792)

Nearby radio navigation aids

VOR radial/distance  VOR name  Freq  Var
LBYr004/32.5EATON VORTAC110.6005E
MEIr216/33.6MERIDIAN VORTAC117.0005E

Airport Services

Parking: tiedowns
Bottled oxygen: NONE
Bulk oxygen: NONE

Runway Information

Runway 16/34

Dimensions: 3000 x 50 ft. / 914 x 15 m
Surface: asphalt, in fair condition
Weight bearing capacity: 
Single wheel: 8.0
Runway edge lights: medium intensity
RUNWAY 16  RUNWAY 34
Latitude: 31-57.458397N31-56.990420N
Longitude: 089-14.213923W089-14.025057W
Elevation: 329.6 ft.358.2 ft.
Gradient: 1.1%1.1%
Traffic pattern: leftleft
Runway heading: 159 magnetic, 161 true339 magnetic, 341 true
Markings: basic, in good conditionbasic, in good condition
Obstructions: 65 ft. tree, 1980 ft. from runway, 250 ft. right of centerline, 27:1 slope to clear165 ft. trees, 4000 ft. from runway, 23:1 slope to clear

Airport Ownership and Management from official FAA records

Ownership: Publicly-owned
Owner: CITY OF BAY SPRINGS
PO BOX 307
BAY SPRINGS, MS 39422
Phone 601-764-4112
Manager: CORY BLACKWELL
PO BOX 307
BAY SPRINGS, MS 39422
Phone (601) 580-0469
AMGR MAY BE RCHD AFT HRS AT (601) 670-1523.

Airport Operational Statistics

Aircraft based on the field: 2
Single engine airplanes: 2
    
Aircraft operations: avg 107/week *
65% transient general aviation
35% local general aviation
* for 12-month period ending 05 April 2018

Additional Remarks

PUBLIC PHONE AT ARPT 601-764-2558.
TREES ON EAST AND WEST SIDES OF RY VIOLATE TRANSITIONAL SFC.

Instrument Procedures

There are no published instrument procedures at 00M.

Some nearby airports with instrument procedures:

KLUL - Hesler-Noble Field Airport (17 nm S)
17M - Magee Municipal Airport (29 nm W)
KPIB - Hattiesburg-Laurel Regional Airport (30 nm S)
KMEI - Key Field Airport (33 nm NE)
M43 - Prentiss-Jefferson Davis County Airport (40 nm SW)
 
Loc | Ops | Rwys | IFR | FBO | Links
Com | Nav | Svcs | Stats | Notes
Area around 00M (Thigpen Field Airport)
 
Road maps at: MapQuest Bing Google
 
Aerial photo
WARNING: Photo may not be current or correct
Aerial photo of 00M (Thigpen Field Airport)
Do you have a better or more recent aerial photo of Thigpen Field Airport that you would like to share? If so, please send us your photo.

 
Sectional chart

 
Airport distance calculator
Flying to Thigpen Field Airport? Find the distance to fly.

From to 00M

Sunrise and sunset
Times for 19-Mar-2019
 Local
(UTC-5)
 Zulu
(UTC)
Morning civil twilight06:3911:39
Sunrise07:0312:03
Sunset19:0700:07
Evening civil twilight19:3100:31

Current date and time
Zulu (UTC)  19-Mar-2019 07:38:51
Local (UTC-5)  19-Mar-2019 02:38:51
 
METAR
KPIB 
30nm S 
190656Z AUTO 02004KT 10SM CLR 08/01 A3031 RMK AO2 SLP263 T00830011
KLUL 
30nm S 
190715Z AUTO 04005KT 10SM CLR 09/00 A3030 RMK A02 T00921000
KMEI 
34nm NE 
190658Z AUTO 00000KT 10SM CLR 07/02 A3032 RMK AO2 SLP265 T00670017
KHBG 
41nm S 
190653Z AUTO 00000KT 10SM CLR 09/01 A3030 RMK AO2 SLP259 T00940011
KJAN 
48nm NW 
190654Z AUTO 04006KT 10SM CLR 08/00 A3031 RMK AO2 SLPNO T00830000
KNMM 
49nm NE 
190656Z AUTO 33004KT 10SM CLR 07/01 A3033 RMK AO2 SLP282 T00720006 $
K0R0 
49nm SW 
190715Z AUTO 04006KT 10SM +RA CLR 09/01 A3032 RMK AO2
TAF
KPIB 
30nm S 
190540Z 1906/2006 05007KT P6SM SKC
KMEI 
34nm NE 
190540Z 1906/2006 05005KT P6SM SKC
NOTAMs
Click for the latest NOTAMs
NOTAMs are issued by the DoD/FAA and will open in a separate window not controlled by AirNav.

 

 
 

Would you like to see your business listed on this page?

 If your business provides an interesting product or service to pilots, flight crews, aircraft, or users of the Thigpen Field Airport, you should consider listing it here.  To start the listing process, click on the button below
 
Add a business
 

Other Pages about Thigpen Field Airport

Update a link
 
Copyright © AirNav, LLC. All rights reserved. Privacy Policy  Contact